GFSCGP_850_temp_207.txt.gz
Temp
11 7 7 10 10 13 15 14 15 11 12 12 10 10 11 14 15 13 14 15 14 14 13 12 12 12 12 12 12 11 11 11 11 11 10 10 10 11 11 10 10 10 10 10
8 8 10 12 12 12 14 14 13 12 11 11 11 10 9 11 13 14 14 14 14 13 13 13 12 12 12 11 11 11 10 10 10 10 9 8 8 8 9 10 10 10 9 10
8 11 13 13 13 12 13 12 13 12 11 11 10 9 13 13 14 13 13 13 13 13 12 12 12 12 11 11 11 10 10 10 9 9 8 7 7 7 7 8 8 8 8 8
10 11 12 12 12 10 11 12 12 11 7 7 9 7 10 12 12 11 12 12 12 12 12 12 12 11 11 10 10 9 9 9 8 7 6 6 6 6 6 6 7 7 7 7
8 10 10 11 11 12 10 9 9 8 4 4 8 4 8 9 10 10 9 11 12 12 11 11 11 10 10 10 9 8 8 7 7 6 6 6 6 6 5 5 5 6 6 6
8 10 9 10 9 11 9 8 6 4 3 1 7 6 8 9 10 9 9 11 11 11 11 11 10 10 9 8 8 7 7 6 6 5 5 6 6 6 6 6 6 6 6 6
8 8 9 10 8 9 9 6 3 4 1 5 8 6 8 10 9 9 9 11 11 11 10 10 9 9 8 7 7 6 5 5 5 5 5 5 5 6 6 6 6 6 6 6
4 4 8 9 9 8 7 7 5 4 5 5 8 7 9 9 10 11 11 11 11 10 10 9 9 8 7 7 6 6 4 4 4 5 5 5 5 5 5 6 6 6 5 5
5 7 8 9 8 9 8 7 8 6 7 3 5 8 9 9 9 10 10 11 10 10 9 9 8 7 7 6 6 5 5 4 5 5 4 5 5 5 5 5 5 5 5 5
8 7 8 8 9 9 8 9 7 4 5 6 4 8 5 8 8 8 8 9 10 9 9 8 7 7 7 6 5 5 5 4 4 4 4 4 4 5 5 5 5 5 5 4
8 7 7 8 7 6 7 7 8 5 3 2 3 6 9 9 8 8 9 10 9 9 8 8 7 7 6 5 5 4 3 3 3 4 4 4 4 4 5 4 4 4 5 5
8 7 5 7 8 9 8 8 7 3 5 2 1 5 9 8 8 9 9 9 9 8 7 7 7 6 6 5 5 4 3 3 3 3 3 3 3 3 3 3 4 5 5 5
5 6 3 6 8 8 8 8 8 7 4 5 3 6 9 9 7 8 8 8 8 8 7 6 6 5 5 4 3 3 3 3 2 2 3 3 3 3 3 4 4 4 4 5
6 5 5 5 7 8 7 8 8 7 3 5 5 8 9 9 9 7 8 7 7 7 6 6 5 5 4 3 2 3 3 3 2 2 3 3 3 3 3 3 4 4 4 5
4 4 5 6 6 7 7 7 8 7 6 5 7 8 8 8 6 7 7 7 7 7 6 5 4 4 4 2 2 3 2 2 2 2 2 3 3 3 3 3 3 2 3 4
4 3 2 3 6 6 6 6 6 6 7 7 7 7 8 8 7 7 6 6 6 6 5 5 4 2 2 2 2 2 1 1 1 1 2 2 3 2 3 3 2 2 3 4
3 2 2 3 4 4 3 5 6 7 7 8 6 8 8 6 6 6 6 6 5 5 5 5 4 3 2 1 1 1 1 1 1 1 1 2 2 3 3 2 2 2 2 2
2 2 0 2 3 3 6 6 7 7 7 7 7 7 7 6 6 6 5 5 5 5 5 4 4 3 3 2 1 1 1 0 1 1 1 2 2 2 2 2 2 1 1 1
2 3 1 2 2 3 5 6 7 6 6 5 6 4 5 5 5 4 5 5 5 4 4 4 4 3 3 2 2 1 1 1 0 1 1 1 1 1 1 2 1 1 0 0
1 2 2 1 2 2 5 6 7 7 4 4 4 3 4 5 3 2 4 4 4 4 4 4 3 3 2 2 1 1 1 1 -0 -0 -0 -0 0 0 1 1 1 0 0 0
-0 -1 1 1 2 2 4 4 7 4 3 4 5 5 5 3 3 4 4 4 4 4 3 3 3 3 2 2 1 1 1 -0 -0 -1 -1 -0 -0 -0 -0 0 0 0 0 0
0 -1 -1 -1 0 -0 4 4 4 3 4 4 4 4 4 4 4 4 4 4 4 3 3 3 3 3 2 2 1 1 0 -0 -0 -1 -1 -0 -0 -0 -0 0 -0 -0 -0 -0
0 -0 -1 1 2 3 3 3 3 3 4 4 4 4 3 3 3 3 3 3 4 3 3 2 3 2 2 1 1 1 0 -0 -1 -1 -1 -1 -1 -1 -1 -0 -1 -1 -1 -1
-2 -1 -2 -2 -0 -0 0 1 3 3 3 4 3 3 3 2 2 2 2 2 3 3 2 2 2 2 2 2 1 1 0 -0 -0 -0 -1 -1 -1 -1 -1 -1 -1 -1 -1 -1
-2 -2 -3 -2 -1 -0 1 1 2 2 1 2 2 2 2 2 1 2 2 2 2 2 2 2 2 2 2 2 1 1 0 -0 -0 -0 -1 -1 -1 -1 -1 -1 -1 -1 -1 -1
-2 -2 -3 -3 -1 -1 -1 -0 -0 0 0 0 0 1 1 1 1 1 1 1 2 1 2 2 2 2 2 2 1 1 0 -0 -0 -0 -1 -1 -1 -1 -1 -1 -1 -1 -1 -0

GFSCGP_850_temp_213.txt.gz
Temp
9 6 5 8 8 11 11 11 13 11 11 11 10 9 10 12 11 11 12 12 12 12 12 12 12 11 11 11 11 10 10 10 10 10 10 11 11 11 11 11 10 10 10 10
6 7 9 9 9 9 10 11 11 11 11 11 10 10 9 9 10 12 12 12 12 12 11 11 11 11 11 11 10 10 10 10 10 9 9 9 9 10 10 10 10 9 9 9
7 10 9 10 10 10 10 10 11 11 10 10 9 9 11 11 10 10 12 12 12 12 11 11 11 11 11 11 11 10 10 10 9 9 9 9 8 8 8 8 8 7 7 7
7 9 10 10 10 8 11 9 11 10 6 6 7 7 10 10 8 7 8 10 11 11 11 11 11 11 11 10 10 10 10 9 9 8 8 7 6 5 6 6 6 6 6 6
8 8 8 9 10 10 9 8 7 6 3 5 7 3 8 8 9 7 6 10 11 11 11 11 11 10 10 10 9 9 8 8 8 7 6 6 5 5 5 5 6 6 5 5
7 8 8 9 8 8 7 7 5 2 2 2 6 7 8 7 8 7 7 9 10 10 10 10 10 10 9 9 8 8 8 7 6 6 5 5 4 4 4 5 5 6 5 5
6 7 8 9 8 8 7 6 1 3 0 5 6 5 7 8 8 8 7 8 10 10 10 10 10 9 9 8 8 7 7 7 6 5 4 4 4 4 4 4 4 5 5 6
3 4 7 8 8 8 7 7 2 3 3 4 5 6 8 7 7 9 9 10 10 10 10 9 9 9 8 7 7 6 6 5 4 4 4 4 4 4 5 4 4 4 5 5
4 6 7 7 8 8 7 5 6 4 4 2 5 6 8 6 5 7 8 9 9 9 9 9 9 8 7 7 6 5 5 5 4 4 4 4 4 4 4 4 4 4 4 5
7 6 7 7 8 8 7 7 5 4 4 4 4 5 5 7 6 6 6 7 8 9 9 8 8 7 6 6 5 5 5 5 4 4 3 3 3 3 3 2 2 3 3 3
6 5 6 7 6 6 6 6 6 4 2 1 2 6 5 7 7 5 6 8 8 8 8 8 7 6 5 5 5 5 5 4 3 3 3 3 3 2 2 3 3 3 3 3
6 4 4 5 7 6 6 6 5 4 4 1 2 4 6 6 6 7 7 8 7 7 7 7 6 5 5 5 5 4 4 3 3 3 3 2 3 3 3 3 3 3 4 4
5 4 2 5 6 7 7 6 6 5 3 4 2 6 6 6 6 7 7 7 7 7 6 6 6 5 5 5 4 3 3 2 1 1 1 2 2 3 3 3 3 3 4 4
5 3 4 3 6 5 6 6 7 5 3 5 4 7 7 6 6 5 6 7 6 6 6 6 6 5 4 3 2 3 3 2 1 1 1 1 2 3 3 3 4 3 3 3
3 3 3 3 4 4 5 4 4 5 4 4 6 6 8 7 5 6 7 6 5 6 6 5 5 4 4 3 3 2 2 2 1 1 2 2 2 2 3 3 3 2 3 3
2 3 3 2 2 3 3 3 3 4 5 5 5 6 7 8 8 6 6 5 5 5 5 5 4 4 4 3 3 3 3 2 1 1 1 1 2 2 2 2 2 2 2 2
2 1 2 1 2 2 2 3 4 4 5 6 5 7 7 6 5 7 5 5 5 5 4 4 4 4 3 3 3 3 2 2 1 1 1 1 2 2 2 2 2 2 1 1
1 2 1 1 2 0 3 4 4 3 4 5 5 5 6 6 5 5 5 5 4 4 4 4 4 4 3 3 2 2 2 2 1 1 1 1 1 1 1 1 1 1 1 1
0 1 1 -0 0 1 3 4 4 4 4 2 2 4 3 3 4 3 4 4 4 3 4 3 3 3 3 3 2 2 1 1 1 1 0 0 1 1 0 1 1 1 1 0
-1 0 1 -0 0 1 3 2 3 3 2 1 2 2 2 3 1 1 3 3 3 3 3 3 3 3 3 2 2 2 1 1 1 0 -0 0 0 0 0 1 0 0 1 0
-1 -0 1 1 1 1 1 1 2 3 1 1 3 3 3 2 2 3 3 3 3 3 3 3 3 3 3 2 2 2 1 0 0 0 -0 0 0 0 -0 0 -0 0 0 -0
-2 -2 -1 0 1 0 0 0 1 -1 0 1 1 2 3 3 3 3 3 3 2 2 3 3 3 3 2 2 1 1 1 0 0 -0 -0 -0 -0 -0 -0 -0 -1 -0 -0 -0
-2 -2 -2 -1 -1 -1 -0 -1 -1 -1 -0 -1 -0 1 1 2 2 2 2 2 2 2 2 3 3 2 2 2 1 1 1 -0 0 -0 -1 -1 -0 -0 -1 -1 -1 -1 -1 -0
-3 -3 -3 -2 -1 -2 -1 -1 -1 -1 -1 -1 -1 -0 0 -0 1 1 1 1 1 2 2 2 3 2 2 2 2 1 1 -0 -0 -0 -0 -1 -0 -0 -1 -1 -1 -1 -0 0
-4 -3 -4 -5 -4 -2 -1 -2 -2 -2 -2 -2 -2 -2 -1 -1 -1 -0 -0 0 1 1 1 1 2 2 2 2 1 0 0 -0 -0 -0 -0 -0 -0 -1 -1 -1 -1 -1 -1 -1
-3 -5 -5 -4 -2 -3 -3 -2 -2 -3 -3 -3 -3 -3 -2 -2 -2 -1 -1 -0 0 0 1 1 2 2 2 2 1 1 0 -0 -0 -1 0 -1 -1 -1 -1 -1 -1 -0 -0 -0

GFSCGP_850_temp_216.txt.gz
Temp
8 5 5 8 8 10 10 10 11 11 10 10 9 9 9 11 11 10 11 12 12 12 12 12 11 11 11 11 11 11 11 11 11 11 11 12 12 12 11 11 10 10 10 10
6 8 9 9 9 8 9 10 9 11 10 10 9 9 9 9 9 11 12 12 12 12 11 11 11 11 11 11 11 11 11 10 10 10 10 10 10 11 10 10 9 8 8 8
7 9 8 9 9 9 9 9 10 10 9 8 8 8 10 10 9 10 11 12 12 12 11 11 11 11 11 10 10 10 10 10 9 9 9 9 10 10 9 8 8 7 7 6
7 8 9 9 10 7 10 8 9 10 6 6 6 7 9 9 8 7 8 9 11 11 11 11 10 10 10 10 10 10 10 9 9 9 9 8 8 7 7 7 7 7 6 6
8 8 8 9 9 9 8 7 7 6 3 4 7 3 7 8 8 8 7 8 10 11 11 10 10 10 10 10 10 10 9 9 8 8 7 7 6 5 5 5 5 6 6 6
6 7 7 8 7 8 6 7 5 2 2 2 6 6 7 6 8 7 6 7 9 10 10 10 10 10 10 10 9 9 9 8 8 8 6 5 5 4 4 5 5 5 5 5
6 7 7 8 8 8 7 6 1 2 -0 5 4 4 7 8 7 7 6 7 9 10 10 10 10 10 9 8 8 8 8 7 7 6 5 4 4 4 4 4 4 4 5 5
3 4 7 8 8 7 7 6 2 2 2 4 5 5 7 7 7 7 8 8 9 9 9 9 9 9 8 8 7 7 7 6 6 5 5 4 4 4 3 3 4 4 4 4
4 6 7 7 7 8 6 5 6 4 3 1 5 5 6 6 5 6 7 7 8 9 9 9 8 8 7 7 7 6 6 5 5 5 4 4 3 3 2 2 2 2 2 2
6 6 6 7 7 7 7 5 4 3 4 3 3 5 5 6 6 5 5 6 8 8 8 8 8 7 7 7 6 5 5 5 4 4 3 3 3 3 2 2 2 2 3 3
5 5 6 6 5 5 5 5 4 3 2 1 2 6 4 6 5 5 5 7 8 8 8 7 7 7 6 6 5 5 5 4 4 3 3 3 3 4 4 3 3 2 3 4
5 3 4 5 6 5 5 5 4 2 3 0 -0 3 7 4 5 6 7 8 8 8 7 7 7 6 6 5 5 4 4 3 2 2 1 1 2 2 3 3 2 3 4 5
4 3 1 4 5 5 5 5 5 3 3 3 1 5 6 5 5 7 7 7 7 7 7 7 6 6 5 4 4 3 3 2 2 1 1 1 2 1 2 3 3 3 3 4
5 3 4 3 6 5 5 5 6 4 2 4 4 4 6 6 5 5 6 6 6 6 6 5 5 5 4 4 3 3 2 2 1 1 1 2 2 2 2 2 3 3 3 3
3 3 2 3 3 4 4 5 4 4 4 4 5 4 5 6 5 5 6 6 5 5 5 5 5 5 4 4 3 3 3 3 2 1 1 1 1 2 2 2 3 3 3 3
2 3 3 3 2 2 2 3 3 3 4 3 3 4 5 8 8 6 6 5 5 5 4 4 4 4 4 4 3 3 2 3 2 1 1 1 1 1 2 2 3 3 2 1
2 2 2 2 2 3 2 3 4 5 3 4 3 5 5 5 5 7 7 5 5 4 4 4 4 4 4 3 3 2 2 2 2 1 1 1 1 1 1 1 2 2 1 1
1 1 1 1 2 1 4 3 4 3 3 1 2 3 3 5 5 5 5 4 4 4 4 3 3 3 3 3 3 3 2 1 1 1 1 1 1 1 1 1 1 1 0 1
0 1 1 1 1 2 4 3 3 4 1 -1 -0 0 2 2 3 2 3 3 3 3 3 3 3 3 3 3 2 2 2 1 1 1 1 0 0 0 0 1 1 0 -0 0
-1 1 1 0 1 1 2 1 1 1 0 -1 -0 -0 1 2 0 -1 2 3 3 3 3 4 4 3 3 2 2 1 1 1 1 1 0 0 -0 -0 0 0 0 0 -0 -0
-1 -0 1 1 1 0 -0 -1 0 2 -0 -1 -1 -0 1 -0 0 2 2 3 2 3 4 3 3 3 2 2 1 1 1 0 0 1 1 -0 -0 -0 -0 0 0 0 -0 -0
-1 -1 0 1 1 0 -1 -1 -1 -1 -1 -1 -1 -1 -0 0 2 2 2 2 2 2 2 2 3 3 3 2 2 1 1 0 0 1 1 -0 -1 -1 -0 -0 -0 -0 -0 -0
-2 -2 -2 -2 -1 -2 -2 -2 -1 -1 -1 -1 -1 -1 -1 0 0 0 1 1 1 1 2 2 2 2 3 2 2 1 1 0 0 0 0 -1 -1 -1 -1 -1 -1 -1 -0 -0
-3 -3 -3 -2 -3 -2 -2 -1 -1 -2 -2 -2 -2 -2 -2 -1 -0 -0 0 0 0 1 1 1 2 2 2 2 2 2 1 0 -0 0 -0 -1 -1 -1 -1 -1 -1 -1 -0 0
-4 -4 -5 -5 -4 -2 -2 -2 -2 -2 -3 -3 -3 -3 -3 -2 -2 -1 0 1 1 1 1 1 1 1 2 2 1 2 1 0 -0 0 -0 -1 -1 -1 -1 -1 -1 -1 -0 -0
-4 -5 -5 -5 -3 -4 -4 -2 -3 -3 -3 -3 -4 -4 -3 -3 -3 -2 -2 -1 -0 0 0 0 1 1 1 2 1 1 1 -0 -0 -0 -1 -1 -1 -1 -2 -1 -1 -1 -0 -0

GFSCGP_850_temp_219.txt.gz
Temp
8 7 7 8 7 9 9 9 10 11 10 10 9 8 9 10 10 9 10 11 11 12 11 11 11 11 11 11 11 11 11 11 11 12 12 13 13 12 12 11 11 11 10 10
7 8 8 8 8 8 8 9 9 10 9 9 8 9 9 9 9 11 11 11 11 11 11 11 10 10 10 10 11 11 11 11 11 11 11 11 11 11 11 11 10 9 9 8
8 9 8 9 8 8 8 8 9 10 8 7 7 9 9 9 9 10 11 12 12 12 11 11 10 10 10 10 10 10 10 10 11 11 10 10 10 10 10 9 9 7 7 7
7 7 8 9 9 7 9 8 9 9 7 8 6 10 9 8 8 8 9 10 11 11 11 11 10 10 10 10 10 10 10 10 10 9 9 9 9 9 8 7 7 7 6 6
8 8 8 8 9 8 8 7 7 6 5 5 7 6 9 7 9 8 8 8 10 11 11 11 10 10 10 10 10 9 9 9 9 9 8 8 7 7 6 6 6 6 6 5
6 7 7 8 7 7 5 6 5 3 3 4 6 7 8 8 9 8 7 7 8 9 10 10 10 10 10 9 9 9 8 8 8 8 7 6 6 6 6 5 5 5 6 6
6 6 6 7 7 7 7 6 4 4 2 6 4 5 7 7 7 7 7 7 8 9 9 9 9 9 9 9 8 8 8 8 8 7 6 5 5 5 4 4 4 4 5 5
4 5 6 7 7 7 6 6 4 4 4 5 4 6 9 7 6 6 7 7 7 8 9 9 9 9 9 8 8 8 8 8 7 6 6 5 4 4 3 2 2 2 2 3
4 6 6 6 7 7 6 5 5 4 2 3 6 6 7 6 6 5 5 7 7 8 8 8 8 8 8 8 7 7 7 7 6 5 5 4 4 4 3 3 3 2 2 3
5 6 6 6 7 6 6 5 5 4 4 4 4 5 7 8 6 4 4 6 7 7 8 8 8 8 7 7 7 7 6 6 5 4 4 4 4 4 3 3 3 3 3 3
4 5 5 6 5 5 5 5 4 3 3 3 4 7 5 7 5 4 4 7 7 8 8 8 7 7 7 6 6 6 5 4 3 3 3 3 2 1 1 2 2 3 4 4
4 3 4 5 5 5 5 5 4 4 3 1 2 5 7 5 4 5 5 7 7 7 7 7 7 6 6 6 6 5 4 3 2 2 2 2 1 1 1 2 3 3 4 4
4 3 2 5 5 5 5 4 4 3 2 2 3 6 6 5 5 6 6 6 6 7 7 7 7 6 6 6 5 4 3 3 2 1 1 1 2 1 2 2 3 4 4 4
5 3 4 4 6 4 5 5 4 4 2 4 5 5 6 6 6 5 5 6 6 6 6 6 6 6 5 4 4 3 3 2 3 1 1 1 1 1 2 3 3 4 4 3
4 4 2 3 3 4 4 5 4 4 4 4 5 4 5 6 6 5 6 6 5 5 6 6 6 5 4 4 3 3 2 2 3 2 1 1 1 1 1 2 3 4 3 3
2 3 3 3 3 2 3 3 3 4 4 3 4 4 5 6 7 5 6 5 5 5 5 5 4 4 4 3 3 2 2 2 2 2 1 1 1 1 1 1 2 3 2 2
2 2 2 3 2 2 2 2 4 5 4 4 3 4 3 4 4 5 6 6 5 4 4 4 4 4 4 3 3 2 3 2 1 1 1 1 1 1 1 1 2 2 1 1
1 1 2 2 2 1 4 3 4 3 1 -0 0 0 0 1 1 3 5 5 4 4 4 4 4 4 3 3 3 2 1 1 1 1 1 1 -0 1 1 1 1 1 1 1
0 1 1 1 1 2 4 2 2 3 -0 -1 -2 -1 -0 1 2 1 2 3 3 3 3 4 4 3 3 3 2 2 1 1 1 1 1 0 0 0 0 1 1 0 1 0
-1 0 2 1 1 1 2 1 -0 1 -1 -2 -2 -2 -1 1 0 -1 2 2 2 3 3 3 3 3 3 3 2 2 1 1 1 1 0 0 -0 0 0 0 0 -0 -0 0
-1 -1 0 1 1 1 -2 -1 -1 1 -1 -2 -2 -2 -1 -2 -1 1 1 2 2 2 2 2 3 4 3 3 2 2 1 1 0 0 0 -0 -0 0 0 0 0 -0 -0 -0
-0 -1 -0 1 1 0 -2 -2 0 -2 -2 -2 -2 -2 -1 -1 0 0 1 1 1 1 1 2 2 2 2 2 2 2 1 0 0 -0 -0 -1 -0 -0 -0 -0 -0 -1 -1 -1
-2 -2 -2 -1 -1 -3 -2 -1 -1 -1 -1 -2 -2 -1 -2 -1 -0 0 0 0 0 1 1 1 2 2 2 2 2 2 2 1 0 -0 -1 -1 -1 -0 -1 -1 -1 -1 -0 -0
-3 -4 -3 -2 -3 -3 -2 -2 -1 -2 -2 -2 -2 -2 -2 -2 -1 -1 0 1 1 1 1 1 1 1 2 2 2 2 2 1 -0 -0 -1 -1 -1 -1 -1 -1 -2 -1 -0 -0
-4 -4 -5 -5 -5 -3 -3 -2 -2 -3 -3 -3 -3 -3 -3 -3 -3 -2 -2 -1 0 1 1 1 1 1 2 1 2 2 1 1 0 -0 -1 -1 -1 -1 -1 -2 -2 -1 -1 -0
-5 -5 -6 -6 -3 -3 -3 -3 -3 -4 -4 -4 -4 -4 -4 -4 -4 -3 -3 -2 -2 -1 0 0 1 1 1 1 1 1 1 1 0 -0 -1 -1 -1 -1 -2 -2 -2 -1 -1 -0

GFSCGP_850_temp_222.txt.gz
Temp
9 13 14 14 13 13 13 14 14 14 12 13 14 14 15 14 12 13 14 13 13 12 10 11 11 11 11 11 11 10 11 11 11 11 11 11 11 11 11 11 11 10 10 10
12 13 11 10 10 11 12 13 14 14 12 12 14 14 16 15 14 14 14 14 13 11 10 10 11 11 10 10 10 10 10 10 11 11 11 11 11 11 10 10 9 9 9 9
12 12 9 10 10 11 12 13 13 13 12 11 12 15 16 15 14 13 13 13 13 11 10 10 10 10 10 10 10 10 10 10 10 11 10 10 10 10 10 9 9 8 8 7
11 9 10 11 11 11 11 11 11 11 12 13 11 15 16 15 14 13 13 12 12 11 10 9 10 10 10 10 10 10 10 10 10 10 10 10 9 9 8 8 7 7 7 6
12 10 10 10 11 10 11 9 10 10 10 10 12 12 17 12 15 15 14 13 12 11 10 9 9 10 10 9 9 9 10 10 10 9 9 9 8 7 7 6 6 6 6 6
10 7 9 10 9 9 8 10 10 8 9 10 13 14 16 16 16 14 12 12 11 11 10 9 8 9 9 9 9 9 9 9 9 8 8 7 7 7 6 5 5 5 5 5
9 9 8 8 10 9 9 11 10 10 9 12 9 10 15 15 13 11 11 11 9 9 9 7 9 9 9 9 9 9 8 8 8 7 7 7 7 6 5 4 4 4 3 3
10 10 9 9 10 11 10 11 11 10 11 12 8 11 15 11 10 9 8 8 8 8 8 7 8 9 9 9 8 8 8 8 7 7 7 6 6 5 4 4 4 3 4 4
10 10 8 8 8 9 9 9 10 9 7 9 13 12 13 11 11 9 8 7 7 7 7 6 7 8 8 8 8 8 8 7 7 6 6 5 4 4 4 3 3 3 4 4
10 10 8 7 8 7 8 9 8 9 8 9 11 11 13 12 11 9 8 8 7 6 6 6 7 8 8 8 7 7 7 7 6 5 4 3 3 2 2 2 2 3 3 4
8 8 7 7 8 9 7 8 8 9 8 9 11 12 11 11 10 9 8 8 7 6 6 6 7 7 7 7 7 7 6 6 5 4 4 3 2 2 1 1 2 3 4 4
8 8 8 9 6 6 7 9 10 9 8 7 7 11 10 10 9 8 8 7 7 6 6 7 7 7 6 6 6 6 6 5 4 3 3 2 2 2 1 1 3 3 4 4
7 8 7 8 7 6 6 7 8 8 7 8 8 11 9 9 10 7 8 7 6 6 6 6 7 6 6 6 6 5 5 4 3 3 2 2 1 1 1 1 2 3 4 4
6 6 8 8 7 7 6 7 7 8 8 9 9 10 11 11 10 9 7 6 6 5 6 5 6 6 6 6 5 5 4 3 3 3 2 2 1 1 0 1 2 3 4 4
5 5 6 7 6 5 6 8 7 6 7 8 9 9 10 10 10 9 8 6 5 5 5 5 5 5 6 5 5 4 3 3 2 2 2 2 1 1 0 1 2 3 3 3
3 4 4 4 6 4 4 6 6 7 7 7 8 7 9 8 8 7 7 5 5 5 4 5 5 5 5 4 4 3 3 2 2 2 1 1 1 1 1 1 1 2 3 2
3 4 4 5 4 3 3 5 6 7 7 7 6 7 5 6 6 6 6 5 5 4 4 5 5 5 4 3 3 3 2 2 1 1 1 1 1 0 1 1 1 1 1 1
3 3 3 4 2 4 6 5 5 4 2 2 3 3 3 3 1 1 2 4 4 3 4 5 4 4 4 3 3 2 2 1 1 1 1 1 -1 0 0 0 0 1 1 1
1 3 3 4 4 7 6 4 3 4 1 0 1 2 2 2 2 2 1 2 3 3 3 3 4 3 3 3 3 2 2 1 1 1 1 1 -0 0 0 0 0 0 0 1
1 1 3 3 3 4 3 2 0 2 3 -1 0 0 1 2 5 3 1 1 2 2 3 3 3 3 3 3 3 3 2 1 1 1 0 0 -0 -0 -0 -0 -0 -0 0 0
1 1 1 3 3 4 1 0 -1 3 3 -1 -1 -1 -0 1 0 0 0 1 1 2 2 2 2 2 2 3 3 3 2 2 1 1 0 -0 -0 -0 -0 -1 -1 -1 -0 -0
2 1 2 2 2 3 -1 0 2 1 -1 -1 -2 -2 -1 -1 -1 -1 -0 0 0 1 1 1 1 2 2 2 3 3 2 2 1 0 0 -0 -0 -1 -1 -1 -1 -1 -1 -0
1 2 2 3 3 -1 -1 -0 -1 -1 -1 -1 -2 -2 -2 -2 -1 -0 0 0 1 1 1 1 1 1 1 2 2 2 2 2 2 1 -0 -0 -1 -1 -1 -1 -1 -1 -0 -0
-1 -2 0 0 -1 -1 -1 -2 -2 -2 -2 -2 -2 -2 -3 -3 -2 -1 -1 0 1 1 1 1 1 1 2 2 2 1 1 2 1 1 -0 -1 -1 -1 -2 -1 -2 -2 -0 -0
-1 -2 -1 -1 -2 -3 -3 -2 -2 -3 -3 -3 -4 -4 -3 -4 -3 -3 -3 -2 -1 0 1 1 1 1 2 2 2 1 1 1 1 1 -1 -1 -1 -1 -2 -2 -2 -2 -1 -0
-3 -1 -1 0 -1 -1 -2 -2 -3 -3 -3 -4 -4 -4 -4 -4 -4 -4 -4 -4 -3 -2 -1 -1 -0 1 1 1 1 1 1 1 1 1 -0 -1 -1 -1 -2 -2 -3 -1 -1 -1